Bow Victor — LAHC2 — position and weather

sailwx.info

Track history (hours):
 
Tides and Currents Weather Stations Pressure Air Temp Water Temp Dewpoint Dewpoint Depression Visibility Wind Speed Wind Dir Waves Ship Positions

Bow Victor

Last reported at 2015-Aug-03 17:04 UTC. Time now 2015-Sep-03 06:53 UTC.
Position N 27°27' W 015°16'.
Warning: this ship's position is 30 days out of date.

Length 183 m; draft 6.9 m.

Type: Tanker. MMSI: 257873000.

Date/timePositionNaut miles runAvg speedWind from/ knotsBaromVisibWave heightAir tempDewpointWater temp
2015-Aug-03 17:04N 27°27' W 015°16'714.0
2015-Aug-03 16:33N 27°34' W 015°14'1413.7
2015-Aug-03 15:33N 27°47' W 015°09'1413.7
2015-Aug-03 14:34N 27°60' W 015°04'1413.5
2015-Aug-03 13:34N 28°12' W 014°59'1413.7
2015-Aug-03 12:34N 28°25' W 014°54'1413.9
2015-Aug-03 11:33N 28°39' W 014°50'8614.0
2015-Aug-03 05:27N 30°02' W 014°28'45713.8
2015-Aug-01 20:21N 37°27' W 012°21'  
2015-Jul-29 19:33N 50°31' W 000°00'1110.9
2015-Jul-29 18:31N 50°34' E 000°17'1111.4
2015-Jul-29 17:34N 50°38' E 000°33'1312.9
2015-Jul-29 16:34N 50°45' E 000°50'1513.7
2015-Jul-29 15:28N 50°54' E 001°08'1213.3
2015-Jul-29 14:34N 51°02' E 001°23'1312.5
2015-Jul-29 13:33N 51°10' E 001°39'1211.6
2015-Jul-29 12:33N 51°19' E 001°49'1111.2
2015-Jul-29 11:33N 51°28' E 002°00'5911.7
2015-Jul-29 06:31N 52°03' E 003°17'1313.0
2015-Jul-29 05:33N 52°03' E 003°37'1111.2
2015-Jul-29 04:33N 52°02' E 003°55'6 6.2
2015-Jul-29 03:33N 51°58' E 004°02'0 0.0
2015-Jul-29 02:30N 51°58' E 004°02'0 0.0
2015-Jul-29 01:30N 51°58' E 004°02'0 0.0
2015-Jul-29 00:30N 51°58' E 004°02'0 0.0
2015-Jul-28 23:33N 51°58' E 004°02'0 0.0
2015-Jul-28 22:15N 51°58' E 004°02'0 0.0
2015-Jul-28 21:33N 51°58' E 004°02'0 0.0
2015-Jul-28 20:18N 51°58' E 004°02'0 0.0
2015-Jul-28 19:30N 51°58' E 004°02'0 0.0
2015-Jul-28 18:33N 51°58' E 004°02'0 0.0
2015-Jul-28 17:30N 51°58' E 004°02'0 0.0
2015-Jul-28 16:33N 51°58' E 004°02'0 0.0
2015-Jul-28 15:33N 51°58' E 004°02'0 0.0
2015-Jul-28 14:33N 51°58' E 004°02'0 0.0
2015-Jul-28 13:30N 51°58' E 004°02'0 0.0
2015-Jul-28 12:33N 51°58' E 004°02'0 0.0
2015-Jul-28 11:30N 51°58' E 004°02'0 0.0
2015-Jul-28 10:24N 51°58' E 004°02'0 0.0
2015-Jul-28 09:33N 51°58' E 004°02'0 0.0
2015-Jul-28 08:33N 51°58' E 004°02'0 0.0
2015-Jul-28 07:33N 51°58' E 004°02'0 0.0
2015-Jul-28 06:33N 51°58' E 004°02'0 0.0
2015-Jul-28 05:33N 51°58' E 004°02'0 0.0
2015-Jul-28 04:33N 51°58' E 004°02'0 0.0
2015-Jul-28 03:33N 51°58' E 004°02'0 0.0
2015-Jul-28 02:33N 51°58' E 004°02'0 0.0
2015-Jul-28 01:33N 51°58' E 004°02'0 0.0
2015-Jul-28 00:30N 51°58' E 004°02'0 0.0
2015-Jul-27 23:33N 51°58' E 004°02'0 0.0
2015-Jul-27 22:33N 51°58' E 004°02'0 0.0
2015-Jul-27 21:33N 51°58' E 004°02'0 0.0
2015-Jul-27 20:33N 51°58' E 004°02'0 0.0
2015-Jul-27 19:33N 51°58' E 004°02'0 0.0
2015-Jul-27 18:33N 51°58' E 004°02'0 0.0
2015-Jul-27 17:33N 51°58' E 004°02'0 0.0
2015-Jul-27 16:33N 51°58' E 004°02'0 0.0
2015-Jul-27 15:33N 51°58' E 004°02'0 0.0
2015-Jul-27 14:33N 51°58' E 004°02'0 0.0
2015-Jul-27 13:33N 51°58' E 004°02'0 0.0
2015-Jul-27 12:33N 51°58' E 004°02'3 2.5
2015-Jul-27 11:34N 52°00' E 004°02'0 0.2
2015-Jul-27 10:33N 51°60' E 004°02'8 7.9
2015-Jul-27 09:33N 51°56' E 004°13'5 5.0
2015-Jul-27 08:32N 51°54' E 004°20'0 0.0
2015-Jul-27 07:32N 51°54' E 004°20'0 0.0
2015-Jul-27 06:32N 51°54' E 004°20'0 0.0
2015-Jul-27 05:32N 51°54' E 004°20'0 0.0
2015-Jul-27 04:32N 51°54' E 004°20'0 0.0
2015-Jul-27 03:32N 51°54' E 004°20'0 0.0
2015-Jul-27 02:32N 51°54' E 004°20'0 0.0
2015-Jul-27 01:32N 51°54' E 004°20'0 0.0
2015-Jul-27 00:32N 51°54' E 004°20'0 0.0
2015-Jul-26 23:32N 51°54' E 004°20'0 0.0
2015-Jul-26 22:32N 51°54' E 004°20'0 0.0
2015-Jul-26 21:32N 51°54' E 004°20'0 0.0
2015-Jul-26 20:32N 51°54' E 004°20'0 0.0
2015-Jul-26 19:32N 51°54' E 004°20'0 0.0
2015-Jul-26 18:32N 51°54' E 004°20'0 0.0
2015-Jul-26 17:29N 51°54' E 004°20'0 0.0
2015-Jul-26 16:32N 51°54' E 004°20'0 0.0
2015-Jul-26 15:29N 51°54' E 004°20'0 0.0
2015-Jul-26 14:32N 51°54' E 004°20'0 0.0
2015-Jul-26 13:32N 51°54' E 004°20'0 0.0
2015-Jul-26 12:32N 51°54' E 004°20'0 0.0
2015-Jul-26 11:32N 51°54' E 004°20'0 0.0
2015-Jul-26 10:32N 51°54' E 004°20'0 0.0
2015-Jul-26 09:32N 51°54' E 004°20'0 0.0
2015-Jul-26 08:32N 51°54' E 004°20'0 0.0
2015-Jul-26 07:32N 51°54' E 004°20'0 0.0
2015-Jul-26 06:32N 51°54' E 004°20'0 0.0
2015-Jul-26 05:32N 51°54' E 004°20'0 0.0
2015-Jul-26 04:32N 51°54' E 004°20'0 0.0
2015-Jul-26 03:32N 51°54' E 004°20'0 0.1
2015-Jul-26 02:34N 51°54' E 004°20'6 6.1
2015-Jul-26 01:33N 51°56' E 004°12'1111.0
2015-Jul-26 00:33N 52°00' E 003°55'1110.0
2015-Jul-25 23:28N 51°58' E 003°38'1212.9
2015-Jul-25 22:33N 51°55' E 003°19'5212.4
2015-Jul-25 18:23N 51°25' E 002°11'1012.4
2015-Jul-25 17:33N 51°15' E 002°05'1212.3
2015-Jul-25 16:33N 51°08' E 001°49'1212.0
2015-Jul-25 15:34N 50°60' E 001°35'  
Track history (hours):
 
Tides and Currents Weather Stations Pressure Air Temp Water Temp Dewpoint Dewpoint Depression Visibility Wind Speed Wind Dir Waves Ship Positions

Bow Victor

Last reported at 2015-Aug-03 17:04 UTC. Time now 2015-Sep-03 06:53 UTC.
Position N 27°27' W 015°16'.
Warning: this ship's position is 30 days out of date.

Length 183 m; draft 6.9 m.

Type: Tanker. MMSI: 257873000.

Date/timePositionNaut miles runAvg speedWind from/ knotsBaromVisibWave heightAir tempDewpointWater temp
2015-Aug-03 17:04N 27°27' W 015°16'714.0
2015-Aug-03 16:33N 27°34' W 015°14'1413.7
2015-Aug-03 15:33N 27°47' W 015°09'1413.7
2015-Aug-03 14:34N 27°60' W 015°04'1413.5
2015-Aug-03 13:34N 28°12' W 014°59'1413.7
2015-Aug-03 12:34N 28°25' W 014°54'1413.9
2015-Aug-03 11:33N 28°39' W 014°50'8614.0
2015-Aug-03 05:27N 30°02' W 014°28'45713.8
2015-Aug-01 20:21N 37°27' W 012°21'  
2015-Jul-29 19:33N 50°31' W 000°00'1110.9
2015-Jul-29 18:31N 50°34' E 000°17'1111.4
2015-Jul-29 17:34N 50°38' E 000°33'1312.9
2015-Jul-29 16:34N 50°45' E 000°50'1513.7
2015-Jul-29 15:28N 50°54' E 001°08'1213.3
2015-Jul-29 14:34N 51°02' E 001°23'1312.5
2015-Jul-29 13:33N 51°10' E 001°39'1211.6
2015-Jul-29 12:33N 51°19' E 001°49'1111.2
2015-Jul-29 11:33N 51°28' E 002°00'5911.7
2015-Jul-29 06:31N 52°03' E 003°17'1313.0
2015-Jul-29 05:33N 52°03' E 003°37'1111.2
2015-Jul-29 04:33N 52°02' E 003°55'6 6.2
2015-Jul-29 03:33N 51°58' E 004°02'0 0.0
2015-Jul-29 02:30N 51°58' E 004°02'0 0.0
2015-Jul-29 01:30N 51°58' E 004°02'0 0.0
2015-Jul-29 00:30N 51°58' E 004°02'0 0.0
2015-Jul-28 23:33N 51°58' E 004°02'0 0.0
2015-Jul-28 22:15N 51°58' E 004°02'0 0.0
2015-Jul-28 21:33N 51°58' E 004°02'0 0.0
2015-Jul-28 20:18N 51°58' E 004°02'0 0.0
2015-Jul-28 19:30N 51°58' E 004°02'0 0.0
2015-Jul-28 18:33N 51°58' E 004°02'0 0.0
2015-Jul-28 17:30N 51°58' E 004°02'0 0.0
2015-Jul-28 16:33N 51°58' E 004°02'0 0.0
2015-Jul-28 15:33N 51°58' E 004°02'0 0.0
2015-Jul-28 14:33N 51°58' E 004°02'0 0.0
2015-Jul-28 13:30N 51°58' E 004°02'0 0.0
2015-Jul-28 12:33N 51°58' E 004°02'0 0.0
2015-Jul-28 11:30N 51°58' E 004°02'0 0.0
2015-Jul-28 10:24N 51°58' E 004°02'0 0.0
2015-Jul-28 09:33N 51°58' E 004°02'0 0.0
2015-Jul-28 08:33N 51°58' E 004°02'0 0.0
2015-Jul-28 07:33N 51°58' E 004°02'0 0.0
2015-Jul-28 06:33N 51°58' E 004°02'0 0.0
2015-Jul-28 05:33N 51°58' E 004°02'0 0.0
2015-Jul-28 04:33N 51°58' E 004°02'0 0.0
2015-Jul-28 03:33N 51°58' E 004°02'0 0.0
2015-Jul-28 02:33N 51°58' E 004°02'0 0.0
2015-Jul-28 01:33N 51°58' E 004°02'0 0.0
2015-Jul-28 00:30N 51°58' E 004°02'0 0.0
2015-Jul-27 23:33N 51°58' E 004°02'0 0.0
2015-Jul-27 22:33N 51°58' E 004°02'0 0.0
2015-Jul-27 21:33N 51°58' E 004°02'0 0.0
2015-Jul-27 20:33N 51°58' E 004°02'0 0.0
2015-Jul-27 19:33N 51°58' E 004°02'0 0.0
2015-Jul-27 18:33N 51°58' E 004°02'0 0.0
2015-Jul-27 17:33N 51°58' E 004°02'0 0.0
2015-Jul-27 16:33N 51°58' E 004°02'0 0.0
2015-Jul-27 15:33N 51°58' E 004°02'0 0.0
2015-Jul-27 14:33N 51°58' E 004°02'0 0.0
2015-Jul-27 13:33N 51°58' E 004°02'0 0.0
2015-Jul-27 12:33N 51°58' E 004°02'3 2.5
2015-Jul-27 11:34N 52°00' E 004°02'0 0.2
2015-Jul-27 10:33N 51°60' E 004°02'8 7.9
2015-Jul-27 09:33N 51°56' E 004°13'5 5.0
2015-Jul-27 08:32N 51°54' E 004°20'0 0.0
2015-Jul-27 07:32N 51°54' E 004°20'0 0.0
2015-Jul-27 06:32N 51°54' E 004°20'0 0.0
2015-Jul-27 05:32N 51°54' E 004°20'0 0.0
2015-Jul-27 04:32N 51°54' E 004°20'0 0.0
2015-Jul-27 03:32N 51°54' E 004°20'0 0.0
2015-Jul-27 02:32N 51°54' E 004°20'0 0.0
2015-Jul-27 01:32N 51°54' E 004°20'0 0.0
2015-Jul-27 00:32N 51°54' E 004°20'0 0.0
2015-Jul-26 23:32N 51°54' E 004°20'0 0.0
2015-Jul-26 22:32N 51°54' E 004°20'0 0.0
2015-Jul-26 21:32N 51°54' E 004°20'0 0.0
2015-Jul-26 20:32N 51°54' E 004°20'0 0.0
2015-Jul-26 19:32N 51°54' E 004°20'0 0.0
2015-Jul-26 18:32N 51°54' E 004°20'0 0.0
2015-Jul-26 17:29N 51°54' E 004°20'0 0.0
2015-Jul-26 16:32N 51°54' E 004°20'0 0.0
2015-Jul-26 15:29N 51°54' E 004°20'0 0.0
2015-Jul-26 14:32N 51°54' E 004°20'0 0.0
2015-Jul-26 13:32N 51°54' E 004°20'0 0.0
2015-Jul-26 12:32N 51°54' E 004°20'0 0.0
2015-Jul-26 11:32N 51°54' E 004°20'0 0.0
2015-Jul-26 10:32N 51°54' E 004°20'0 0.0
2015-Jul-26 09:32N 51°54' E 004°20'0 0.0
2015-Jul-26 08:32N 51°54' E 004°20'0 0.0
2015-Jul-26 07:32N 51°54' E 004°20'0 0.0
2015-Jul-26 06:32N 51°54' E 004°20'0 0.0
2015-Jul-26 05:32N 51°54' E 004°20'0 0.0
2015-Jul-26 04:32N 51°54' E 004°20'0 0.0
2015-Jul-26 03:32N 51°54' E 004°20'0 0.1
2015-Jul-26 02:34N 51°54' E 004°20'6 6.1
2015-Jul-26 01:33N 51°56' E 004°12'1111.0
2015-Jul-26 00:33N 52°00' E 003°55'1110.0
2015-Jul-25 23:28N 51°58' E 003°38'1212.9
2015-Jul-25 22:33N 51°55' E 003°19'5212.4
2015-Jul-25 18:23N 51°25' E 002°11'1012.4
2015-Jul-25 17:33N 51°15' E 002°05'1212.3
2015-Jul-25 16:33N 51°08' E 001°49'1212.0
2015-Jul-25 15:34N 50°60' E 001°35'  

Dump ship's entire track history